This is the latest recevied weather packets stored in our database for station/object DG8SF-13. If no packets are shown the sender has not sent any weather packets the latest 10 day(s).
| Time | Temp. | Humidity | Pressure | Rain* | Wind** | Luminosity | Snow |
|---|---|---|---|---|---|---|---|
| 1788150300 | 15° C | 96% | 1015.9 hPa | 0.51 mm | - | - | - |
| 1788149975 | 15° C | 96% | 1015.9 hPa | 0.51 mm | - | - | - |
| 1788149654 | 15° C | 96% | 1015.8 hPa | 0.51 mm | - | - | - |
| 1788149341 | 15° C | 96% | 1015.7 hPa | 0.51 mm | - | - | - |
| 1788149016 | 15° C | 96% | 1015.7 hPa | 0.51 mm | - | - | - |
| 1788148705 | 15° C | 96% | 1015.6 hPa | 0 mm | - | - | - |
| 1788148395 | 15° C | 96% | 1015.7 hPa | 0 mm | - | - | - |
| 1788148067 | 15° C | 96% | 1015.7 hPa | 0 mm | - | - | - |
| 1788147745 | 15° C | 96% | 1015.7 hPa | 0 mm | - | - | - |
| 1788147433 | 15° C | 96% | 1015.5 hPa | 0 mm | - | - | - |
| 1788147121 | 15° C | 96% | 1015.5 hPa | 0 mm | - | - | - |
| 1788146808 | 15° C | 96% | 1015.4 hPa | 0 mm | - | - | - |
| 1788146498 | 15.56° C | 96% | 1015.3 hPa | 0 mm | - | - | - |
| 1788146172 | 15.56° C | 96% | 1015.3 hPa | 0 mm | - | - | - |
| 1788145848 | 15.56° C | 96% | 1015.3 hPa | 0 mm | - | - | - |
| 1788145524 | 15.56° C | 96% | 1015.2 hPa | 0 mm | - | - | - |
| 1788145202 | 15.56° C | 96% | 1015.2 hPa | 0 mm | - | - | - |
| 1788144875 | 15.56° C | 96% | 1015.3 hPa | 0 mm | - | - | - |
| 1788144572 | 15.56° C | 96% | 1015.3 hPa | 0 mm | - | - | - |
| 1788144227 | 15.56° C | 96% | 1015.3 hPa | 0.51 mm | - | - | - |
| 1788143918 | 15.56° C | 96% | 1015.3 hPa | 0.76 mm | - | - | - |
| 1788143604 | 15.56° C | 95% | 1015.4 hPa | 1.27 mm | - | - | - |
| 1788143281 | 15.56° C | 95% | 1015.5 hPa | 2.29 mm | - | - | - |
| 1788142967 | 15.56° C | 95% | 1015.5 hPa | 2.79 mm | - | - | - |
| 1788142657 | 15.56° C | 95% | 1015.6 hPa | 2.79 mm | - | - | - |
* Rain latest hour (hover to see other rain measurements)
** Current wind speed in m/s (hover to see current wind gust speed)